Location: Devargunta
(16.7631°N, 80.9077°E)
Time: 10:28:56
(UTC+00:00)

Cosmos 1689 Rocket - Pass Details

Date: 19 January 2021
Orbit: 353 x 367 km, 97.5° (Epoch: 28 February)

Event Time Altitude Azimuth Distance (km) Brightness Sun altitude
Rises 13:17:06 0° 355° (N) 2,171 5.7 -12.5°
Reaches altitude 10° 13:19:11 10° 342° (NNW) 1,323 4.8 -13.0°
Maximum altitude 13:21:36 26° 283° (WNW) 745 4.2 -13.5°
Drops below altitude 10° 13:24:00 10° 224° (SW) 1,316 5.7 -14.1°
Sets 13:26:05 0° 210° (SSW) 2,156 6.6 -14.6°
